This is the latest recevied weather packets stored in our database for station/object KC0CAU. If no packets are shown the sender has not sent any weather packets the latest 10 day(s).
| Time | Temp. | Humidity | Pressure | Rain* | Wind** | Luminosity | Snow |
|---|---|---|---|---|---|---|---|
| 1778106654 | 10.56° C | 39% | 1016.6 hPa | 0 mm | - | - | - |
| 1778105748 | 10.56° C | 37% | 1016.8 hPa | 0 mm | - | - | - |
| 1778104859 | 10° C | 39% | 1016.8 hPa | 0 mm | - | - | - |
| 1778103944 | 10° C | 38% | 1017.1 hPa | 0 mm | - | - | - |
| 1778103042 | 10° C | 40% | 1017.2 hPa | 0 mm | - | - | - |
| 1778102148 | 10° C | 40% | 1017.5 hPa | 0 mm | - | - | - |
| 1778101238 | 10° C | 39% | 1017.7 hPa | 0 mm | - | - | - |
| 1778100338 | 10° C | 42% | 1017.9 hPa | 0 mm | - | - | - |
| 1778099435 | 9.44° C | 44% | 1018 hPa | 0 mm | - | - | - |
| 1778098533 | 10° C | 42% | 1018.3 hPa | 0 mm | - | - | - |
| 1778097630 | 8.89° C | 44% | 1018.5 hPa | 0 mm | - | - | - |
| 1778096734 | 8.89° C | 44% | 1018.7 hPa | 0 mm | - | - | - |
| 1778095827 | 8.33° C | 47% | 1018.9 hPa | 0 mm | - | - | - |
| 1778094926 | 8.33° C | 44% | 1018.9 hPa | 0 mm | - | - | - |
| 1778094023 | 8.89° C | 46% | 1019.2 hPa | 0 mm | - | - | - |
| 1778093119 | 7.78° C | 50% | 1019.5 hPa | 0 mm | - | - | - |
| 1778092218 | 7.78° C | 46% | 1019.8 hPa | 0 mm | - | - | - |
| 1778091313 | 7.78° C | 48% | 1020.1 hPa | 0 mm | - | - | - |
| 1778090412 | 6.67° C | 47% | 1020.4 hPa | 0 mm | - | - | - |
| 1778089510 | 6.11° C | 48% | 1020.5 hPa | 0 mm | - | - | - |
| 1778088609 | 6.11° C | 49% | 1020.7 hPa | 0 mm | - | - | - |
| 1778087708 | 6.11° C | 50% | 1020.8 hPa | 0 mm | - | - | - |
| 1778086806 | 5.56° C | 51% | 1020.9 hPa | 0 mm | - | - | - |
| 1778085904 | 5° C | 52% | 1021.1 hPa | 0 mm | - | - | - |
| 1778085001 | 5° C | 52% | 1021.2 hPa | 0 mm | - | - | - |
* Rain latest hour (hover to see other rain measurements)
** Current wind speed in m/s (hover to see current wind gust speed)